owner,sensor,date,latitude,longitude,vertical_datum,sea_water_practical_salinity,qcFlag 
TABS,ioos:station:wmo:42043:1,2013-05-01T00:00:00Z,28.9818,-94.9186,2.0,29.34,11111222 
TABS,ioos:station:wmo:42043:1,2013-05-01T00:30:00Z,28.9818,-94.9186,2.0,29.39,11111222 
TABS,ioos:station:wmo:42043:1,2013-05-01T01:00:00Z,28.9818,-94.9186,2.0,29.34,11111222 
TABS,ioos:station:wmo:42043:1,2013-05-01T01:30:00Z,28.9818,-94.9186,2.0,29.42,11111222 
TABS,ioos:station:wmo:42043:1,2013-05-01T02:00:00Z,28.9818,-94.9186,2.0,29.38,11111222 
TABS,ioos:station:wmo:42043:1,2013-05-01T02:30:00Z,28.9818,-94.9186,2.0,29.47,11111222 
TABS,ioos:station:wmo:42043:1,2013-05-01T03:00:00Z,28.9818,-94.9186,2.0,29.41,11111222 
TABS,ioos:station:wmo:42043:1,2013-05-01T03:30:00Z,28.9818,-94.9186,2.0,29.81,11111222 
TABS,ioos:station:wmo:42043:1,2013-05-01T04:00:00Z,28.9818,-94.9186,2.0,30.05,11111222 
TABS,ioos:station:wmo:42043:1,2013-05-01T04:30:00Z,28.9818,-94.9186,2.0,30.3,11111222 
TABS,ioos:station:wmo:42043:1,2013-05-01T05:00:00Z,28.9818,-94.9186,2.0,30.39,11111222 
TABS,ioos:station:wmo:42043:1,2013-05-01T05:30:00Z,28.9818,-94.9186,2.0,30.84,11111222 
TABS,ioos:station:wmo:42043:1,2013-05-01T06:00:00Z,28.9818,-94.9186,2.0,31.16,11111222 
TABS,ioos:station:wmo:42043:1,2013-05-01T06:30:00Z,28.9818,-94.9186,2.0,30.48,11111222 
TABS,ioos:station:wmo:42043:1,2013-05-01T07:00:00Z,28.9818,-94.9186,2.0,30.62,11111222 
TABS,ioos:station:wmo:42043:1,2013-05-01T07:30:00Z,28.9818,-94.9186,2.0,29.75,11111222 
TABS,ioos:station:wmo:42043:1,2013-05-01T08:00:00Z,28.9818,-94.9186,2.0,29.43,11111222 
TABS,ioos:station:wmo:42043:1,2013-05-01T08:30:00Z,28.9818,-94.9186,2.0,29.54,11111222 
TABS,ioos:station:wmo:42043:1,2013-05-01T09:00:00Z,28.9818,-94.9186,2.0,29.62,11111222 
TABS,ioos:station:wmo:42043:1,2013-05-01T09:30:00Z,28.9818,-94.9186,2.0,29.74,11111222 
TABS,ioos:station:wmo:42043:1,2013-05-01T10:00:00Z,28.9818,-94.9186,2.0,29.82,11111222 
TABS,ioos:station:wmo:42043:1,2013-05-01T10:30:00Z,28.9818,-94.9186,2.0,30.93,11111222 
TABS,ioos:station:wmo:42043:1,2013-05-01T11:00:00Z,28.9818,-94.9186,2.0,31.18,11111222 
TABS,ioos:station:wmo:42043:1,2013-05-01T11:30:00Z,28.9818,-94.9186,2.0,31.13,11111222 
TABS,ioos:station:wmo:42043:1,2013-05-01T12:00:00Z,28.9818,-94.9186,2.0,31.16,11111222 
TABS,ioos:station:wmo:42043:1,2013-05-01T12:30:00Z,28.9818,-94.9186,2.0,31.56,11111222 
TABS,ioos:station:wmo:42043:1,2013-05-01T13:00:00Z,28.9818,-94.9186,2.0,31.84,11111222 
TABS,ioos:station:wmo:42043:1,2013-05-01T13:30:00Z,28.9818,-94.9186,2.0,31.9,11111222 
TABS,ioos:station:wmo:42043:1,2013-05-01T14:00:00Z,28.9818,-94.9186,2.0,31.84,11111222 
TABS,ioos:station:wmo:42043:1,2013-05-01T14:30:00Z,28.9818,-94.9186,2.0,32.14,11111222 
TABS,ioos:station:wmo:42043:1,2013-05-01T15:00:00Z,28.9818,-94.9186,2.0,32.31,11111222 
TABS,ioos:station:wmo:42043:1,2013-05-01T15:30:00Z,28.9818,-94.9186,2.0,32.43,11111222 
TABS,ioos:station:wmo:42043:1,2013-05-01T16:00:00Z,28.9818,-94.9186,2.0,32.49,11111222 
TABS,ioos:station:wmo:42043:1,2013-05-01T16:30:00Z,28.9818,-94.9186,2.0,32.5,11111222 
TABS,ioos:station:wmo:42043:1,2013-05-01T17:00:00Z,28.9818,-94.9186,2.0,32.51,11111222 
TABS,ioos:station:wmo:42043:1,2013-05-01T17:30:00Z,28.9818,-94.9186,2.0,32.45,11111222 
TABS,ioos:station:wmo:42043:1,2013-05-01T18:00:00Z,28.9818,-94.9186,2.0,32.44,11111222 
TABS,ioos:station:wmo:42043:1,2013-05-01T18:30:00Z,28.9818,-94.9186,2.0,32.45,11111222 
TABS,ioos:station:wmo:42043:1,2013-05-01T19:00:00Z,28.9818,-94.9186,2.0,32.46,11111222 
TABS,ioos:station:wmo:42043:1,2013-05-01T19:30:00Z,28.9818,-94.9186,2.0,32.41,11111222 
TABS,ioos:station:wmo:42043:1,2013-05-01T20:00:00Z,28.9818,-94.9186,2.0,32.45,11111222 
TABS,ioos:station:wmo:42043:1,2013-05-01T20:30:00Z,28.9818,-94.9186,2.0,32.43,11111222 
TABS,ioos:station:wmo:42043:1,2013-05-01T21:00:00Z,28.9818,-94.9186,2.0,32.5,11111222 
TABS,ioos:station:wmo:42043:1,2013-05-01T21:30:00Z,28.9818,-94.9186,2.0,32.45,11111222 
TABS,ioos:station:wmo:42043:1,2013-05-01T22:00:00Z,28.9818,-94.9186,2.0,32.45,11111222 
TABS,ioos:station:wmo:42043:1,2013-05-01T22:30:00Z,28.9818,-94.9186,2.0,32.49,11111222 
TABS,ioos:station:wmo:42043:1,2013-05-01T23:00:00Z,28.9818,-94.9186,2.0,32.48,11111222 
TABS,ioos:station:wmo:42043:1,2013-05-01T23:30:00Z,28.9818,-94.9186,2.0,32.55,11111222 
TABS,ioos:station:wmo:42043:1,2013-05-02T00:00:00Z,28.9818,-94.9186,2.0,32.55,11111222 
TABS,ioos:station:wmo:42043:1,2013-05-02T00:30:00Z,28.9818,-94.9186,2.0,32.57,11111222 
TABS,ioos:station:wmo:42043:1,2013-05-02T01:00:00Z,28.9818,-94.9186,2.0,32.54,11111222 
TABS,ioos:station:wmo:42043:1,2013-05-02T01:30:00Z,28.9818,-94.9186,2.0,32.54,11111222 
TABS,ioos:station:wmo:42043:1,2013-05-02T02:00:00Z,28.9818,-94.9186,2.0,32.48,11111222 
TABS,ioos:station:wmo:42043:1,2013-05-02T02:30:00Z,28.9818,-94.9186,2.0,32.41,11111222 
TABS,ioos:station:wmo:42043:1,2013-05-02T03:00:00Z,28.9818,-94.9186,2.0,32.31,11111222 
TABS,ioos:station:wmo:42043:1,2013-05-02T03:30:00Z,28.9818,-94.9186,2.0,32.38,11111222 
TABS,ioos:station:wmo:42043:1,2013-05-02T04:00:00Z,28.9818,-94.9186,2.0,32.67,11111222 
TABS,ioos:station:wmo:42043:1,2013-05-02T04:30:00Z,28.9818,-94.9186,2.0,32.79,11111222 
TABS,ioos:station:wmo:42043:1,2013-05-02T05:00:00Z,28.9818,-94.9186,2.0,32.75,11111222 
TABS,ioos:station:wmo:42043:1,2013-05-02T05:30:00Z,28.9818,-94.9186,2.0,32.77,11111222 
TABS,ioos:station:wmo:42043:1,2013-05-02T06:00:00Z,28.9818,-94.9186,2.0,32.73,11111222 
TABS,ioos:station:wmo:42043:1,2013-05-02T06:30:00Z,28.9818,-94.9186,2.0,32.5,11111222 
TABS,ioos:station:wmo:42043:1,2013-05-02T07:00:00Z,28.9818,-94.9186,2.0,32.46,11111222 
TABS,ioos:station:wmo:42043:1,2013-05-02T07:30:00Z,28.9818,-94.9186,2.0,32.28,11111222 
TABS,ioos:station:wmo:42043:1,2013-05-02T08:00:00Z,28.9818,-94.9186,2.0,32.29,11111222 
TABS,ioos:station:wmo:42043:1,2013-05-02T08:30:00Z,28.9818,-94.9186,2.0,32.25,11111222 
TABS,ioos:station:wmo:42043:1,2013-05-02T09:00:00Z,28.9818,-94.9186,2.0,32.22,11111222 
TABS,ioos:station:wmo:42043:1,2013-05-02T09:30:00Z,28.9818,-94.9186,2.0,31.63,11111222 
TABS,ioos:station:wmo:42043:1,2013-05-02T10:00:00Z,28.9818,-94.9186,2.0,31.49,11111222 
TABS,ioos:station:wmo:42043:1,2013-05-02T10:30:00Z,28.9818,-94.9186,2.0,31.74,11111222 
TABS,ioos:station:wmo:42043:1,2013-05-02T11:00:00Z,28.9818,-94.9186,2.0,31.36,11111222 
TABS,ioos:station:wmo:42043:1,2013-05-02T11:30:00Z,28.9818,-94.9186,2.0,31.34,11111222 
TABS,ioos:station:wmo:42043:1,2013-05-02T12:00:00Z,28.9818,-94.9186,2.0,31.09,11111222 
TABS,ioos:station:wmo:42043:1,2013-05-02T12:30:00Z,28.9818,-94.9186,2.0,31.03,11111222 
TABS,ioos:station:wmo:42043:1,2013-05-02T13:00:00Z,28.9818,-94.9186,2.0,31.27,11111222 
TABS,ioos:station:wmo:42043:1,2013-05-02T13:30:00Z,28.9818,-94.9186,2.0,31.25,11111222 
TABS,ioos:station:wmo:42043:1,2013-05-02T14:00:00Z,28.9818,-94.9186,2.0,31.53,11111222 
TABS,ioos:station:wmo:42043:1,2013-05-02T14:30:00Z,28.9818,-94.9186,2.0,31.77,11111222 
TABS,ioos:station:wmo:42043:1,2013-05-02T15:00:00Z,28.9818,-94.9186,2.0,31.99,11111222 
TABS,ioos:station:wmo:42043:1,2013-05-02T15:30:00Z,28.9818,-94.9186,2.0,32.11,11111222 
TABS,ioos:station:wmo:42043:1,2013-05-02T16:00:00Z,28.9818,-94.9186,2.0,32.15,11111222 
TABS,ioos:station:wmo:42043:1,2013-05-02T16:30:00Z,28.9818,-94.9186,2.0,32.22,11111222 
TABS,ioos:station:wmo:42043:1,2013-05-02T17:00:00Z,28.9818,-94.9186,2.0,32.24,11111222 
TABS,ioos:station:wmo:42043:1,2013-05-02T17:30:00Z,28.9818,-94.9186,2.0,31.85,11111222 
TABS,ioos:station:wmo:42043:1,2013-05-03T00:00:00Z,28.9818,-94.9186,2.0,29.55,11111222 
TABS,ioos:station:wmo:42043:1,2013-05-03T00:30:00Z,28.9818,-94.9186,2.0,29.69,11111222 
TABS,ioos:station:wmo:42043:1,2013-05-03T01:00:00Z,28.9818,-94.9186,2.0,29.54,11111222 
TABS,ioos:station:wmo:42043:1,2013-05-03T01:30:00Z,28.9818,-94.9186,2.0,29.33,11111222 
TABS,ioos:station:wmo:42043:1,2013-05-03T02:00:00Z,28.9818,-94.9186,2.0,29.6,11111222 
TABS,ioos:station:wmo:42043:1,2013-05-03T02:30:00Z,28.9818,-94.9186,2.0,29.49,11111222 
TABS,ioos:station:wmo:42043:1,2013-05-03T03:00:00Z,28.9818,-94.9186,2.0,29.56,11111222 
TABS,ioos:station:wmo:42043:1,2013-05-03T03:30:00Z,28.9818,-94.9186,2.0,29.55,11111222 
TABS,ioos:station:wmo:42043:1,2013-05-03T04:00:00Z,28.9818,-94.9186,2.0,29.89,11111222 
TABS,ioos:station:wmo:42043:1,2013-05-03T04:30:00Z,28.9818,-94.9186,2.0,30.02,11111222 
TABS,ioos:station:wmo:42043:1,2013-05-03T05:00:00Z,28.9818,-94.9186,2.0,30.13,11111222 
TABS,ioos:station:wmo:42043:1,2013-05-03T05:30:00Z,28.9818,-94.9186,2.0,29.49,11111222 
TABS,ioos:station:wmo:42043:1,2013-05-03T06:00:00Z,28.9818,-94.9186,2.0,29.65,11111222 
TABS,ioos:station:wmo:42043:1,2013-05-03T06:30:00Z,28.9818,-94.9186,2.0,30.18,11111222 
TABS,ioos:station:wmo:42043:1,2013-05-03T07:00:00Z,28.9818,-94.9186,2.0,29.87,11111222 
TABS,ioos:station:wmo:42043:1,2013-05-03T07:30:00Z,28.9818,-94.9186,2.0,29.97,11111222 
TABS,ioos:station:wmo:42043:1,2013-05-03T08:00:00Z,28.9818,-94.9186,2.0,30.28,11111222 
TABS,ioos:station:wmo:42043:1,2013-05-03T08:30:00Z,28.9818,-94.9186,2.0,30.58,11111222 
TABS,ioos:station:wmo:42043:1,2013-05-03T09:00:00Z,28.9818,-94.9186,2.0,29.98,11111222 
TABS,ioos:station:wmo:42043:1,2013-05-03T09:30:00Z,28.9818,-94.9186,2.0,30.25,11111222 
TABS,ioos:station:wmo:42043:1,2013-05-03T10:00:00Z,28.9818,-94.9186,2.0,30.38,11111222 
TABS,ioos:station:wmo:42043:1,2013-05-03T10:30:00Z,28.9818,-94.9186,2.0,30.48,11111222 
TABS,ioos:station:wmo:42043:1,2013-05-03T11:00:00Z,28.9818,-94.9186,2.0,30.61,11111222 
TABS,ioos:station:wmo:42043:1,2013-05-03T11:30:00Z,28.9818,-94.9186,2.0,30.68,11111222 
TABS,ioos:station:wmo:42043:1,2013-05-03T12:00:00Z,28.9818,-94.9186,2.0,30.73,11111222 
TABS,ioos:station:wmo:42043:1,2013-05-03T12:30:00Z,28.9818,-94.9186,2.0,30.36,11111222 
TABS,ioos:station:wmo:42043:1,2013-05-03T13:00:00Z,28.9818,-94.9186,2.0,30.36,11111222 
TABS,ioos:station:wmo:42043:1,2013-05-03T13:30:00Z,28.9818,-94.9186,2.0,30.44,11111222 
TABS,ioos:station:wmo:42043:1,2013-05-03T14:00:00Z,28.9818,-94.9186,2.0,30.47,11111222 
TABS,ioos:station:wmo:42043:1,2013-05-03T14:30:00Z,28.9818,-94.9186,2.0,30.55,11111222 
TABS,ioos:station:wmo:42043:1,2013-05-03T15:00:00Z,28.9818,-94.9186,2.0,30.63,11111222 
TABS,ioos:station:wmo:42043:1,2013-05-03T15:30:00Z,28.9818,-94.9186,2.0,30.65,11111222 
TABS,ioos:station:wmo:42043:1,2013-05-03T16:00:00Z,28.9818,-94.9186,2.0,30.72,11111222 
TABS,ioos:station:wmo:42043:1,2013-05-03T16:30:00Z,28.9818,-94.9186,2.0,30.81,11111222 
TABS,ioos:station:wmo:42043:1,2013-05-03T17:00:00Z,28.9818,-94.9186,2.0,30.82,11111222 
TABS,ioos:station:wmo:42043:1,2013-05-03T17:30:00Z,28.9818,-94.9186,2.0,30.84,11111222 
TABS,ioos:station:wmo:42043:1,2013-05-03T18:00:00Z,28.9818,-94.9186,2.0,30.81,11111222 
TABS,ioos:station:wmo:42043:1,2013-05-03T18:30:00Z,28.9818,-94.9186,2.0,30.87,11111222 
TABS,ioos:station:wmo:42043:1,2013-05-03T19:00:00Z,28.9818,-94.9186,2.0,30.81,11111222 
TABS,ioos:station:wmo:42043:1,2013-05-03T19:30:00Z,28.9818,-94.9186,2.0,30.79,11111222 
TABS,ioos:station:wmo:42043:1,2013-05-03T20:00:00Z,28.9818,-94.9186,2.0,30.77,11111222 
TABS,ioos:station:wmo:42043:1,2013-05-03T20:30:00Z,28.9818,-94.9186,2.0,30.72,11111222 
TABS,ioos:station:wmo:42043:1,2013-05-03T21:00:00Z,28.9818,-94.9186,2.0,30.67,11111222 
TABS,ioos:station:wmo:42043:1,2013-05-03T21:30:00Z,28.9818,-94.9186,2.0,30.65,11111222 
TABS,ioos:station:wmo:42043:1,2013-05-03T22:00:00Z,28.9818,-94.9186,2.0,30.62,11111222 
TABS,ioos:station:wmo:42043:1,2013-05-03T22:30:00Z,28.9818,-94.9186,2.0,30.58,11111222 
TABS,ioos:station:wmo:42043:1,2013-05-03T23:00:00Z,28.9818,-94.9186,2.0,30.54,11111222 
TABS,ioos:station:wmo:42043:1,2013-05-03T23:30:00Z,28.9818,-94.9186,2.0,30.5,11111222 
TABS,ioos:station:wmo:42043:1,2013-05-04T00:00:00Z,28.9818,-94.9186,2.0,30.47,11111222 
TABS,ioos:station:wmo:42043:1,2013-05-04T00:30:00Z,28.9818,-94.9186,2.0,30.47,11111222 
TABS,ioos:station:wmo:42043:1,2013-05-04T01:00:00Z,28.9818,-94.9186,2.0,30.47,11111222 
TABS,ioos:station:wmo:42043:1,2013-05-04T01:30:00Z,28.9818,-94.9186,2.0,30.47,11111222 
TABS,ioos:station:wmo:42043:1,2013-05-04T02:00:00Z,28.9818,-94.9186,2.0,30.58,11111222 
TABS,ioos:station:wmo:42043:1,2013-05-04T02:30:00Z,28.9818,-94.9186,2.0,30.58,11111222 
TABS,ioos:station:wmo:42043:1,2013-05-04T03:00:00Z,28.9818,-94.9186,2.0,30.57,11111222 
TABS,ioos:station:wmo:42043:1,2013-05-04T03:30:00Z,28.9818,-94.9186,2.0,30.54,11111222 
TABS,ioos:station:wmo:42043:1,2013-05-04T04:00:00Z,28.9818,-94.9186,2.0,30.51,11111222 
TABS,ioos:station:wmo:42043:1,2013-05-04T04:30:00Z,28.9818,-94.9186,2.0,30.46,11111222 
TABS,ioos:station:wmo:42043:1,2013-05-04T05:00:00Z,28.9818,-94.9186,2.0,30.45,11111222 
TABS,ioos:station:wmo:42043:1,2013-05-04T05:30:00Z,28.9818,-94.9186,2.0,30.43,11111222 
TABS,ioos:station:wmo:42043:1,2013-05-04T06:00:00Z,28.9818,-94.9186,2.0,30.42,11111222 
TABS,ioos:station:wmo:42043:1,2013-05-04T06:30:00Z,28.9818,-94.9186,2.0,30.4,11111222 
TABS,ioos:station:wmo:42043:1,2013-05-04T07:00:00Z,28.9818,-94.9186,2.0,30.39,11111222 
TABS,ioos:station:wmo:42043:1,2013-05-04T07:30:00Z,28.9818,-94.9186,2.0,30.38,11111222 
TABS,ioos:station:wmo:42043:1,2013-05-04T08:00:00Z,28.9818,-94.9186,2.0,30.38,11111222 
TABS,ioos:station:wmo:42043:1,2013-05-04T08:30:00Z,28.9818,-94.9186,2.0,30.39,11111222 
TABS,ioos:station:wmo:42043:1,2013-05-04T09:00:00Z,28.9818,-94.9186,2.0,30.4,11111222 
TABS,ioos:station:wmo:42043:1,2013-05-04T09:30:00Z,28.9818,-94.9186,2.0,30.42,11111222 
TABS,ioos:station:wmo:42043:1,2013-05-04T10:00:00Z,28.9818,-94.9186,2.0,30.44,11111222 
TABS,ioos:station:wmo:42043:1,2013-05-04T10:30:00Z,28.9818,-94.9186,2.0,30.45,11111222 
TABS,ioos:station:wmo:42043:1,2013-05-04T11:00:00Z,28.9818,-94.9186,2.0,30.48,11111222 
TABS,ioos:station:wmo:42043:1,2013-05-04T11:30:00Z,28.9818,-94.9186,2.0,30.49,11111222 
TABS,ioos:station:wmo:42043:1,2013-05-04T12:00:00Z,28.9818,-94.9186,2.0,30.52,11111222 
TABS,ioos:station:wmo:42043:1,2013-05-04T12:30:00Z,28.9818,-94.9186,2.0,30.58,11111222 
TABS,ioos:station:wmo:42043:1,2013-05-04T13:00:00Z,28.9818,-94.9186,2.0,30.59,11111222 
TABS,ioos:station:wmo:42043:1,2013-05-04T13:30:00Z,28.9818,-94.9186,2.0,30.6,11111222 
TABS,ioos:station:wmo:42043:1,2013-05-04T14:00:00Z,28.9818,-94.9186,2.0,30.6,11111222 
TABS,ioos:station:wmo:42043:1,2013-05-04T14:30:00Z,28.9818,-94.9186,2.0,30.59,11111222 
TABS,ioos:station:wmo:42043:1,2013-05-04T15:00:00Z,28.9818,-94.9186,2.0,30.63,11111222 
TABS,ioos:station:wmo:42043:1,2013-05-04T15:30:00Z,28.9818,-94.9186,2.0,30.61,11111222 
TABS,ioos:station:wmo:42043:1,2013-05-04T16:00:00Z,28.9818,-94.9186,2.0,30.6,11111222 
TABS,ioos:station:wmo:42043:1,2013-05-04T16:30:00Z,28.9818,-94.9186,2.0,30.61,11111222 
TABS,ioos:station:wmo:42043:1,2013-05-04T17:00:00Z,28.9818,-94.9186,2.0,30.6,11111222 
TABS,ioos:station:wmo:42043:1,2013-05-04T17:30:00Z,28.9818,-94.9186,2.0,30.57,11111222 
TABS,ioos:station:wmo:42043:1,2013-05-04T18:00:00Z,28.9818,-94.9186,2.0,30.55,11111222 
TABS,ioos:station:wmo:42043:1,2013-05-04T18:30:00Z,28.9818,-94.9186,2.0,30.53,11111222 
TABS,ioos:station:wmo:42043:1,2013-05-04T19:00:00Z,28.9818,-94.9186,2.0,30.52,11111222 
TABS,ioos:station:wmo:42043:1,2013-05-04T19:30:00Z,28.9818,-94.9186,2.0,30.5,11111222 
TABS,ioos:station:wmo:42043:1,2013-05-04T20:00:00Z,28.9818,-94.9186,2.0,30.53,11111222 
TABS,ioos:station:wmo:42043:1,2013-05-04T20:30:00Z,28.9818,-94.9186,2.0,30.47,11111222 
TABS,ioos:station:wmo:42043:1,2013-05-04T21:00:00Z,28.9818,-94.9186,2.0,30.43,11111222 
TABS,ioos:station:wmo:42043:1,2013-05-04T21:30:00Z,28.9818,-94.9186,2.0,30.43,11111222 
TABS,ioos:station:wmo:42043:1,2013-05-04T22:00:00Z,28.9818,-94.9186,2.0,30.46,11111222 
TABS,ioos:station:wmo:42043:1,2013-05-04T22:30:00Z,28.9818,-94.9186,2.0,30.48,11111222 
TABS,ioos:station:wmo:42043:1,2013-05-04T23:00:00Z,28.9818,-94.9186,2.0,30.44,11111222 
TABS,ioos:station:wmo:42043:1,2013-05-04T23:30:00Z,28.9818,-94.9186,2.0,30.33,11111222 
TABS,ioos:station:wmo:42043:1,2013-05-05T00:00:00Z,28.9818,-94.9186,2.0,30.19,11111222 
TABS,ioos:station:wmo:42043:1,2013-05-05T00:30:00Z,28.9818,-94.9186,2.0,30.16,11111222 
TABS,ioos:station:wmo:42043:1,2013-05-05T01:00:00Z,28.9818,-94.9186,2.0,30.15,11111222 
TABS,ioos:station:wmo:42043:1,2013-05-05T01:30:00Z,28.9818,-94.9186,2.0,30.07,11111222 
TABS,ioos:station:wmo:42043:1,2013-05-05T02:00:00Z,28.9818,-94.9186,2.0,30.05,11111222 
TABS,ioos:station:wmo:42043:1,2013-05-05T02:30:00Z,28.9818,-94.9186,2.0,30.05,11111222 
TABS,ioos:station:wmo:42043:1,2013-05-05T03:00:00Z,28.9818,-94.9186,2.0,30.08,11111222 
TABS,ioos:station:wmo:42043:1,2013-05-05T03:30:00Z,28.9818,-94.9186,2.0,30.09,11111222 
TABS,ioos:station:wmo:42043:1,2013-05-05T04:00:00Z,28.9818,-94.9186,2.0,30.13,11111222 
TABS,ioos:station:wmo:42043:1,2013-05-05T04:30:00Z,28.9818,-94.9186,2.0,30.19,11111222 
TABS,ioos:station:wmo:42043:1,2013-05-05T05:00:00Z,28.9818,-94.9186,2.0,30.21,11111222 
TABS,ioos:station:wmo:42043:1,2013-05-05T05:30:00Z,28.9818,-94.9186,2.0,30.25,11111222 
TABS,ioos:station:wmo:42043:1,2013-05-05T06:00:00Z,28.9818,-94.9186,2.0,30.31,11111222 
TABS,ioos:station:wmo:42043:1,2013-05-05T06:30:00Z,28.9818,-94.9186,2.0,30.36,11111222 
TABS,ioos:station:wmo:42043:1,2013-05-05T07:00:00Z,28.9818,-94.9186,2.0,30.43,11111222 
TABS,ioos:station:wmo:42043:1,2013-05-05T07:30:00Z,28.9818,-94.9186,2.0,30.5,11111222 
TABS,ioos:station:wmo:42043:1,2013-05-05T08:00:00Z,28.9818,-94.9186,2.0,30.63,11111222 
TABS,ioos:station:wmo:42043:1,2013-05-05T08:30:00Z,28.9818,-94.9186,2.0,30.71,11111222 
TABS,ioos:station:wmo:42043:1,2013-05-05T09:00:00Z,28.9818,-94.9186,2.0,30.8,11111222 
TABS,ioos:station:wmo:42043:1,2013-05-05T09:30:00Z,28.9818,-94.9186,2.0,30.89,11111222 
TABS,ioos:station:wmo:42043:1,2013-05-05T10:00:00Z,28.9818,-94.9186,2.0,30.96,11111222 
TABS,ioos:station:wmo:42043:1,2013-05-05T10:30:00Z,28.9818,-94.9186,2.0,30.64,11111222 
TABS,ioos:station:wmo:42043:1,2013-05-05T11:00:00Z,28.9818,-94.9186,2.0,30.46,11111222 
TABS,ioos:station:wmo:42043:1,2013-05-05T11:30:00Z,28.9818,-94.9186,2.0,30.56,11111222 
TABS,ioos:station:wmo:42043:1,2013-05-05T12:00:00Z,28.9818,-94.9186,2.0,30.6,11111222 
TABS,ioos:station:wmo:42043:1,2013-05-05T12:30:00Z,28.9818,-94.9186,2.0,30.58,11111222 
TABS,ioos:station:wmo:42043:1,2013-05-05T13:00:00Z,28.9818,-94.9186,2.0,30.49,11111222 
TABS,ioos:station:wmo:42043:1,2013-05-05T13:30:00Z,28.9818,-94.9186,2.0,30.58,11111222 
TABS,ioos:station:wmo:42043:1,2013-05-05T14:00:00Z,28.9818,-94.9186,2.0,30.67,11111222 
TABS,ioos:station:wmo:42043:1,2013-05-05T14:30:00Z,28.9818,-94.9186,2.0,30.84,11111222 
TABS,ioos:station:wmo:42043:1,2013-05-05T15:00:00Z,28.9818,-94.9186,2.0,30.98,11111222 
TABS,ioos:station:wmo:42043:1,2013-05-05T15:30:00Z,28.9818,-94.9186,2.0,31.05,11111222 
TABS,ioos:station:wmo:42043:1,2013-05-05T16:00:00Z,28.9818,-94.9186,2.0,31.07,11111222 
TABS,ioos:station:wmo:42043:1,2013-05-05T16:30:00Z,28.9818,-94.9186,2.0,30.87,11111222 
TABS,ioos:station:wmo:42043:1,2013-05-05T17:00:00Z,28.9818,-94.9186,2.0,30.87,11111222 
TABS,ioos:station:wmo:42043:1,2013-05-05T17:30:00Z,28.9818,-94.9186,2.0,30.93,11111222 
TABS,ioos:station:wmo:42043:1,2013-05-05T18:00:00Z,28.9818,-94.9186,2.0,30.97,11111222 
TABS,ioos:station:wmo:42043:1,2013-05-05T18:30:00Z,28.9818,-94.9186,2.0,31.0,11111222 
TABS,ioos:station:wmo:42043:1,2013-05-05T19:00:00Z,28.9818,-94.9186,2.0,31.0,11111222 
TABS,ioos:station:wmo:42043:1,2013-05-05T19:30:00Z,28.9818,-94.9186,2.0,31.03,11111222 
TABS,ioos:station:wmo:42043:1,2013-05-05T20:00:00Z,28.9818,-94.9186,2.0,31.05,11111222 
TABS,ioos:station:wmo:42043:1,2013-05-05T20:30:00Z,28.9818,-94.9186,2.0,31.07,11111222 
TABS,ioos:station:wmo:42043:1,2013-05-05T21:00:00Z,28.9818,-94.9186,2.0,31.11,11111222 
TABS,ioos:station:wmo:42043:1,2013-05-05T21:30:00Z,28.9818,-94.9186,2.0,31.09,11111222 
TABS,ioos:station:wmo:42043:1,2013-05-05T22:00:00Z,28.9818,-94.9186,2.0,31.21,11111222 
TABS,ioos:station:wmo:42043:1,2013-05-05T22:30:00Z,28.9818,-94.9186,2.0,31.17,11111222 
TABS,ioos:station:wmo:42043:1,2013-05-05T23:00:00Z,28.9818,-94.9186,2.0,31.17,11111222 
TABS,ioos:station:wmo:42043:1,2013-05-05T23:30:00Z,28.9818,-94.9186,2.0,31.18,11111222 
TABS,ioos:station:wmo:42043:1,2013-05-06T00:00:00Z,28.9818,-94.9186,2.0,31.2,11111222 
TABS,ioos:station:wmo:42043:1,2013-05-06T00:30:00Z,28.9818,-94.9186,2.0,31.21,11111222 
TABS,ioos:station:wmo:42043:1,2013-05-06T01:00:00Z,28.9818,-94.9186,2.0,31.22,11111222 
TABS,ioos:station:wmo:42043:1,2013-05-06T01:30:00Z,28.9818,-94.9186,2.0,31.23,11111222 
TABS,ioos:station:wmo:42043:1,2013-05-06T02:00:00Z,28.9818,-94.9186,2.0,31.22,11111222 
TABS,ioos:station:wmo:42043:1,2013-05-06T02:30:00Z,28.9818,-94.9186,2.0,31.22,11111222 
TABS,ioos:station:wmo:42043:1,2013-05-06T03:00:00Z,28.9818,-94.9186,2.0,31.23,11111222 
TABS,ioos:station:wmo:42043:1,2013-05-06T03:30:00Z,28.9818,-94.9186,2.0,31.24,11111222 
TABS,ioos:station:wmo:42043:1,2013-05-06T04:00:00Z,28.9818,-94.9186,2.0,31.25,11111222 
TABS,ioos:station:wmo:42043:1,2013-05-06T04:30:00Z,28.9818,-94.9186,2.0,31.24,11111222 
TABS,ioos:station:wmo:42043:1,2013-05-06T05:00:00Z,28.9818,-94.9186,2.0,31.23,11111222 
TABS,ioos:station:wmo:42043:1,2013-05-06T05:30:00Z,28.9818,-94.9186,2.0,31.24,11111222 
TABS,ioos:station:wmo:42043:1,2013-05-06T06:00:00Z,28.9818,-94.9186,2.0,31.25,11111222 
TABS,ioos:station:wmo:42043:1,2013-05-06T06:30:00Z,28.9818,-94.9186,2.0,31.27,11111222 
TABS,ioos:station:wmo:42043:1,2013-05-06T07:00:00Z,28.9818,-94.9186,2.0,31.29,11111222 
TABS,ioos:station:wmo:42043:1,2013-05-06T07:30:00Z,28.9818,-94.9186,2.0,31.32,11111222 
TABS,ioos:station:wmo:42043:1,2013-05-06T08:00:00Z,28.9818,-94.9186,2.0,31.33,11111222 
TABS,ioos:station:wmo:42043:1,2013-05-06T08:30:00Z,28.9818,-94.9186,2.0,31.33,11111222 
TABS,ioos:station:wmo:42043:1,2013-05-06T09:00:00Z,28.9818,-94.9186,2.0,31.32,11111222 
TABS,ioos:station:wmo:42043:1,2013-05-06T09:30:00Z,28.9818,-94.9186,2.0,31.31,11111222 
TABS,ioos:station:wmo:42043:1,2013-05-06T10:00:00Z,28.9818,-94.9186,2.0,31.31,11111222 
TABS,ioos:station:wmo:42043:1,2013-05-06T10:30:00Z,28.9818,-94.9186,2.0,31.3,11111222 
TABS,ioos:station:wmo:42043:1,2013-05-06T11:00:00Z,28.9818,-94.9186,2.0,31.3,11111222 
TABS,ioos:station:wmo:42043:1,2013-05-06T11:30:00Z,28.9818,-94.9186,2.0,31.3,11111222 
TABS,ioos:station:wmo:42043:1,2013-05-06T12:00:00Z,28.9818,-94.9186,2.0,31.31,11111222 
TABS,ioos:station:wmo:42043:1,2013-05-06T12:30:00Z,28.9818,-94.9186,2.0,31.33,11111222 
TABS,ioos:station:wmo:42043:1,2013-05-06T13:00:00Z,28.9818,-94.9186,2.0,31.23,11111222 
TABS,ioos:station:wmo:42043:1,2013-05-06T13:30:00Z,28.9818,-94.9186,2.0,31.18,11111222 
TABS,ioos:station:wmo:42043:1,2013-05-06T14:00:00Z,28.9818,-94.9186,2.0,31.14,11111222 
TABS,ioos:station:wmo:42043:1,2013-05-06T14:30:00Z,28.9818,-94.9186,2.0,31.1,11111222 
TABS,ioos:station:wmo:42043:1,2013-05-06T15:00:00Z,28.9818,-94.9186,2.0,31.1,11111222 
TABS,ioos:station:wmo:42043:1,2013-05-06T15:30:00Z,28.9818,-94.9186,2.0,31.1,11111222 
TABS,ioos:station:wmo:42043:1,2013-05-06T16:00:00Z,28.9818,-94.9186,2.0,31.08,11111222 
TABS,ioos:station:wmo:42043:1,2013-05-06T16:30:00Z,28.9818,-94.9186,2.0,31.07,11111222 
TABS,ioos:station:wmo:42043:1,2013-05-06T17:00:00Z,28.9818,-94.9186,2.0,31.06,11111222 
TABS,ioos:station:wmo:42043:1,2013-05-06T17:30:00Z,28.9818,-94.9186,2.0,31.06,11111222 
TABS,ioos:station:wmo:42043:1,2013-05-06T18:00:00Z,28.9818,-94.9186,2.0,31.07,11111222 
TABS,ioos:station:wmo:42043:1,2013-05-06T18:30:00Z,28.9818,-94.9186,2.0,31.05,11111222 
TABS,ioos:station:wmo:42043:1,2013-05-06T19:00:00Z,28.9818,-94.9186,2.0,31.07,11111222 
TABS,ioos:station:wmo:42043:1,2013-05-06T19:30:00Z,28.9818,-94.9186,2.0,31.07,11111222 
TABS,ioos:station:wmo:42043:1,2013-05-06T20:00:00Z,28.9818,-94.9186,2.0,31.1,11111222 
TABS,ioos:station:wmo:42043:1,2013-05-06T20:30:00Z,28.9818,-94.9186,2.0,31.14,11111222 
TABS,ioos:station:wmo:42043:1,2013-05-06T21:00:00Z,28.9818,-94.9186,2.0,31.04,11111222 
TABS,ioos:station:wmo:42043:1,2013-05-06T21:30:00Z,28.9818,-94.9186,2.0,31.12,11111222 